#timestamp,LO_Frequency,Hit,StdDev 
1561582815.9,286047002.6,N
1561582835.7,286047002.6,N
1561582855.6,286047004.3,Y
1561582875.4,286047004.0,P
1561582895.2,286047001.6,N
1561582915.1,286047004.2,N
1561582916.0,286047004.2,N
1561582935.8,286047003.4,N
1561582955.7,286047003.7,N
1561582975.5,286047003.7,N
1561582995.3,286047001.5,N
1561583015.2,286047001.3,N
1561583035.0,286047004.3,Y
1561583035.9,286047004.3,P
1561583055.8,286047000.8,N
1561583075.6,286047000.3,N
1561583095.4,286047000.2,N
1561583115.3,286047000.7,N
1561583135.1,286047000.5,N
1561583155.8,286046998.9,N
1561583175.7,286046999.3,N
1561583195.5,286046998.6,N
1561583215.4,286046999.0,N
1561583235.2,286046998.9,N
1561583255.0,286046999.0,N
1561583255.9,286046999.0,N
1561583275.8,286046998.1,N
1561583295.6,286046996.9,N
1561583315.4,286046997.2,N
1561583335.3,286046996.6,N
1561583355.1,286046998.9,N
1561583375.9,286046996.8,N
1561583395.7,286046997.7,N
1561583415.5,286046997.8,N
1561583435.4,286046997.5,N
1561583455.2,286046995.1,N
1561583475.0,286046995.5,N
1561583476.0,286046995.5,N
1561583495.8,286046995.8,N
1561583515.6,286046996.3,N
1561583535.5,286046995.2,N
1561583555.3,286046997.6,N
1561583575.1,286046995.6,N
1561583595.9,286046996.1,N
1561583615.7,286046993.6,Y
1561583635.6,286046995.1,P
1561583655.4,286046994.9,P
1561583675.2,286046997.3,N
1561583695.1,286046997.2,N
1561583696.0,286046997.2,N
1561583715.8,286046997.3,N
1561583735.6,286046997.2,N
1561583755.5,286046994.9,Y
1561583775.3,286046998.1,P
1561583795.2,286047001.0,N
1561583815.9,286047000.8,N
1561583835.7,286046998.2,N
1561583855.6,286047001.0,N
1561583875.4,286047000.0,N
1561583895.3,286046999.7,N
1561583915.1,286047000.5,N
1561583916.0,286047000.5,N
1561583935.8,286047002.8,N
1561583955.7,286047002.5,N
1561583975.5,286047002.2,N
1561583995.3,286046999.7,N
1561584015.2,286047001.9,N
1561584035.0,286047002.6,N
1561584035.9,286047002.6,N
1561584055.8,286047001.7,N
1561584075.6,286047004.4,N
1561584095.4,286047001.8,N
1561584115.3,286047001.5,N
1561584135.1,286047001.6,N
1561584155.9,286047001.4,N
1561584175.7,286047002.1,N
1561584195.5,286047002.5,N
1561584215.4,286046999.9,N
1561584235.2,286047000.0,N
1561584255.0,286046999.9,N
1561584256.0,286046999.9,N
1561584275.8,286047002.2,N
1561584295.6,286047002.4,N
1561584345.6,286046999.7,E
1561584355.5,286046999.7,N
1561584375.3,286047002.5,P
1561584395.2,286047000.1,N
1561584415.9,286047000.4,N
1561584435.7,286047000.5,N
1561584455.6,286046998.6,N
1561584475.4,286047000.4,N
1561584495.3,286047000.5,N
1561584515.1,286047000.3,N
1561584516.0,286047000.3,N
1561584535.8,286047000.3,N
1561584555.7,286047000.6,N
1561584575.5,286047000.7,N
1561584595.4,286047001.2,N
1561584615.2,286047001.0,N
1561584635.0,286047002.8,Y
1561584635.9,286047002.8,P
1561584655.8,286047000.1,N
1561584675.6,286047000.1,N
1561584695.4,286047002.3,N
1561584715.3,286047000.3,N
1561584735.1,286047000.4,N
1561584755.9,286047000.9,N
1561584775.7,286047000.2,N
1561584795.5,286047000.2,N
1561584815.4,286047002.7,N
1561584835.2,286047002.7,N
1561584855.0,286047002.5,N
1561584855.9,286047002.5,N
1561584875.1,286047002.1,N
1561584895.9,286047004.0,Y
1561584915.7,286047000.3,P
1561584935.5,286047000.1,N
1561584955.4,286047000.3,N
1561584975.2,286047002.2,Y
1561584995.0,286047002.7,P
1561584995.9,286047002.7,N
1561585015.8,286046999.8,N
1561585035.6,286047001.9,N
1561585055.5,286047000.4,N
1561585075.3,286047000.2,N
1561585095.1,286047000.3,N
1561585115.9,286047000.5,N
1561585135.7,286046999.8,N
1561585155.6,286046999.7,N
1561585175.4,286047000.3,N
1561585195.2,286047002.7,N
1561585215.1,286047002.8,N
1561585216.0,286047002.8,N
1561585235.8,286047000.4,N
1561585255.7,286046998.1,N
1561585275.5,286047001.1,N
1561585295.3,286047000.9,N
1561585315.2,286047000.0,N
1561585335.0,286047000.2,N
1561585335.9,286047000.2,N
1561585355.7,286047000.0,N
1561585375.6,286047000.2,N
1561585395.4,286047002.4,N
1561585415.3,286047000.2,N
1561585435.1,286047000.0,N
1561585455.8,286047000.0,N
1561585475.7,286047001.0,N
1561585495.5,286047000.8,N
1561585515.4,286046998.3,N
1561585535.2,286047000.7,N
1561585555.0,286046998.2,N
1561585555.9,286046998.2,N
1561585575.8,286046999.4,N
1561585595.6,286046999.0,N
1561585615.4,286046998.5,N
1561585635.3,286046996.5,N
1561585655.1,286046998.9,N
1561585675.9,286046998.8,N
1561585695.7,286046999.1,N
1561585715.6,286046996.5,N
1561585735.4,286046999.2,N
1561585755.2,286047001.1,N
1561585775.1,286046999.4,N
1561585776.0,286046999.4,N
1561585795.8,286047001.1,N
1561585815.6,286047000.5,N
1561585835.5,286046999.9,N
1561585855.3,286047000.4,N
1561585875.2,286047000.3,N
1561585895.9,286047000.0,N
1561585915.7,286047000.4,N
1561585935.6,286047000.2,N
1561585955.4,286047000.0,N
1561585975.3,286047002.4,N
1561585995.1,286047000.4,N
1561585996.0,286047000.4,N
1561586015.8,286047000.4,N
1561586035.7,286047000.4,N
1561586055.5,286047000.5,N
1561586075.4,286047002.4,N
1561586095.2,286046999.8,N
1561586115.0,286047002.1,N
1561586115.9,286047002.1,N
1561586135.8,286047000.2,N
1561586155.6,286047001.5,N
1561586175.4,286047002.6,N
1561586195.3,286047002.5,N
1561586215.1,286047004.0,Y
1561586235.9,286047001.7,P
1561586255.7,286047002.3,P
1561586275.5,286047002.7,P
1561586295.4,286046999.7,N
1561586315.2,286047011.9,Y
1561586335.1,286047001.0,P
1561586336.0,286047001.0,P
1561586355.8,286046998.5,P
1561586375.6,286046998.9,N
1561586395.5,286046999.5,N
